Location: Unspecified
(47.6577°N, 23.5639°E)
Time: 19:41:31
(UTC+03:00)

ISS - Pass Details

Date: 30 January 2017
Orbit: 400 x 408 km, 51.6° (Epoch: 24 July)

Event Time Altitude Azimuth Distance (km) Brightness Sun altitude
Rises 18:43:20 0° 217° (SW) 2,334 0.8 -13.5°
Reaches altitude 10° 18:45:34 10° 207° (SSW) 1,472 -0.5 -13.9°
Maximum altitude 18:48:31 30° 143° (SE) 753 -2.7 -14.4°
Enters shadow 18:49:23 26° 113° (ESE) 841 -2.7 -14.5°
